| time (UTC) | temp F | wind direction | speed knots | gust knots | rain 1hr in | rain 24hr in | rain mn in | humidity % | barometer mb |
| 20260504050352 | 36 | 163 | 0.0 | 0.0 | 0.00 | 0.00 | 0.00 | 80 | 1014.6 |
| 20260504045849 | 36 | 163 | 0.0 | 0.0 | 0.00 | 0.00 | 0.00 | 80 | 1014.7 |
| 20260504045350 | 37 | 165 | 0.9 | 0.9 | 0.00 | 0.00 | 0.00 | 78 | 1014.7 |
| 20260504044847 | 37 | 169 | 0.0 | 0.0 | 0.00 | 0.00 | 0.00 | 78 | 1014.6 |
| 20260504044344 | 37 | 169 | 0.0 | 0.0 | 0.00 | 0.00 | 0.00 | 78 | 1014.6 |
| 20260504043842 | 37 | 169 | 0.0 | 0.0 | 0.00 | 0.00 | 0.00 | 78 | 1014.6 |
| 20260504043338 | 37 | 169 | 0.0 | 0.0 | 0.00 | 0.00 | 0.00 | 79 | 1014.4 |
| 20260504042835 | 37 | 169 | 0.0 | 0.0 | 0.00 | 0.00 | 0.00 | 79 | 1014.4 |
| 20260504042332 | 37 | 169 | 0.0 | 0.0 | 0.00 | 0.00 | 0.00 | 79 | 1014.7 |
| 20260504041828 | 37 | 180 | 0.0 | 0.9 | 0.00 | 0.00 | 0.00 | 78 | 1014.4 |
| 20260504041324 | 37 | 180 | 0.0 | 0.0 | 0.00 | 0.00 | 0.00 | 76 | 1014.4 |
| 20260504040820 | 37 | 168 | 0.0 | 0.0 | 0.00 | 0.00 | 0.00 | 76 | 1014.4 |
| 20260504040319 | 38 | 168 | 0.0 | 0.0 | 0.00 | 0.00 | 0.00 | 75 | 1014.6 |
| 20260504035814 | 39 | 168 | 1.7 | 1.7 | 0.00 | 0.00 | 0.00 | 73 | 1014.7 |
| 20260504035312 | 39 | 164 | 1.7 | 1.7 | 0.00 | 0.00 | 0.00 | 73 | 1014.8 |
| 20260504034809 | 39 | 166 | 1.7 | 1.7 | 0.00 | 0.00 | 0.00 | 73 | 1014.6 |
| 20260504034306 | 38 | 179 | 0.0 | 0.0 | 0.00 | 0.00 | 0.00 | 73 | 1014.7 |
| 20260504033803 | 39 | 179 | 0.9 | 1.7 | 0.00 | 0.00 | 0.00 | 72 | 1014.7 |
| 20260504033301 | 39 | 169 | 0.0 | 0.9 | 0.00 | 0.00 | 0.00 | 71 | 1014.8 |
| 20260504032757 | 39 | 170 | 1.7 | 1.7 | 0.00 | 0.00 | 0.00 | 71 | 1014.7 |
| 20260504032255 | 40 | 171 | 1.7 | 1.7 | 0.00 | 0.00 | 0.00 | 70 | 1014.6 |
| 20260504031751 | 41 | 189 | 0.0 | 0.0 | 0.00 | 0.00 | 0.00 | 66 | 1014.8 |
| 20260504031249 | 41 | 189 | 0.0 | 0.0 | 0.00 | 0.00 | 0.00 | 65 | 1014.8 |
| 20260504030744 | 40 | 182 | 1.7 | 1.7 | 0.00 | 0.00 | 0.00 | 67 | 1014.8 |
| 20260504030242 | 40 | 175 | 0.9 | 1.7 | 0.00 | 0.00 | 0.00 | 68 | 1014.7 |
| 20260504025738 | 40 | 161 | 1.7 | 1.7 | 0.00 | 0.00 | 0.00 | 68 | 1014.7 |
| 20260504025235 | 39 | 169 | 0.9 | 1.7 | 0.00 | 0.00 | 0.00 | 70 | 1014.8 |
| 20260504024732 | 39 | 166 | 1.7 | 1.7 | 0.00 | 0.00 | 0.00 | 71 | 1014.6 |
| 20260504024229 | 40 | 170 | 0.9 | 1.7 | 0.00 | 0.00 | 0.00 | 69 | 1014.7 |
| 20260504023726 | 41 | 187 | 0.9 | 0.9 | 0.00 | 0.00 | 0.00 | 68 | 1014.8 |
| 20260504023221 | 41 | 181 | 0.9 | 0.9 | 0.00 | 0.00 | 0.00 | 66 | 1014.8 |
| 20260504022718 | 41 | 185 | 1.7 | 1.7 | 0.00 | 0.00 | 0.00 | 67 | 1014.9 |
| 20260504022214 | 41 | 177 | 1.7 | 1.7 | 0.00 | 0.00 | 0.00 | 67 | 1014.7 |
| 20260504021712 | 41 | 177 | 1.7 | 1.7 | 0.00 | 0.00 | 0.00 | 67 | 1014.7 |
| 20260504021209 | 41 | 169 | 1.7 | 1.7 | 0.00 | 0.00 | 0.00 | 67 | 1014.8 |
| 20260504020705 | 41 | 171 | 1.7 | 1.7 | 0.00 | 0.00 | 0.00 | 66 | 1014.7 |
| 20260504020201 | 42 | 175 | 1.7 | 1.7 | 0.00 | 0.00 | 0.00 | 64 | 1014.7 |
| 20260504015658 | 42 | 169 | 1.7 | 1.7 | 0.00 | 0.00 | 0.00 | 64 | 1014.7 |
| 20260504015154 | 42 | 171 | 1.7 | 1.7 | 0.00 | 0.00 | 0.00 | 63 | 1014.7 |
| 20260504014650 | 43 | 171 | 1.7 | 1.7 | 0.00 | 0.00 | 0.00 | 62 | 1014.6 |
| 20260504014148 | 43 | 175 | 1.7 | 1.7 | 0.00 | 0.00 | 0.00 | 62 | 1014.6 |
| 20260504013645 | 43 | 172 | 1.7 | 1.7 | 0.00 | 0.00 | 0.00 | 62 | 1014.7 |
| 20260504013142 | 43 | 177 | 2.6 | 2.6 | 0.00 | 0.00 | 0.00 | 62 | 1014.6 |
| 20260504012639 | 43 | 171 | 1.7 | 1.7 | 0.00 | 0.00 | 0.00 | 63 | 1014.4 |
| 20260504012137 | 43 | 174 | 1.7 | 1.7 | 0.00 | 0.00 | 0.00 | 62 | 1014.6 |
| 20260504011633 | 44 | 164 | 1.7 | 1.7 | 0.00 | 0.00 | 0.00 | 60 | 1014.4 |
| 20260504011130 | 45 | 166 | 1.7 | 1.7 | 0.00 | 0.00 | 0.00 | 58 | 1014.3 |
| 20260504010626 | 46 | 164 | 0.9 | 0.9 | 0.00 | 0.00 | 0.00 | 54 | 1014.4 |
| 20260504010122 | 46 | 192 | 0.0 | 0.9 | 0.00 | 0.00 | 0.00 | 54 | 1014.6 |
| 20260504005619 | 46 | 192 | 0.0 | 0.0 | 0.00 | 0.00 | 0.00 | 51 | 1014.7 |
| 20260504005116 | 46 | 192 | 0.0 | 0.0 | 0.00 | 0.00 | 0.00 | 52 | 1014.4 |
| 20260504004614 | 47 | 192 | 0.0 | 0.0 | 0.00 | 0.00 | 0.00 | 51 | 1014.6 |
| 20260504004111 | 47 | 192 | 0.0 | 0.0 | 0.00 | 0.00 | 0.00 | 50 | 1014.6 |
| 20260504003607 | 47 | 180 | 0.0 | 0.0 | 0.00 | 0.00 | 0.00 | 50 | 1014.3 |
| 20260504003104 | 47 | 180 | 0.0 | 0.0 | 0.00 | 0.00 | 0.00 | 49 | 1014.3 |
| 20260504002601 | 47 | 171 | 0.9 | 0.9 | 0.00 | 0.00 | 0.00 | 52 | 1014.2 |
| 20260504002058 | 48 | 207 | 0.0 | 0.0 | 0.00 | 0.00 | 0.00 | 50 | 1014.2 |
| 20260504001556 | 48 | 207 | 0.0 | 0.0 | 0.00 | 0.00 | 0.00 | 48 | 1014.1 |
| 20260504001051 | 49 | 276 | 0.0 | 0.0 | 0.00 | 0.00 | 0.00 | 48 | 1014.3 |
| 20260504000549 | 49 | 276 | 1.7 | 1.7 | 0.00 | 0.00 | 0.00 | 47 | 1014.1 |
| 20260504000046 | 49 | 279 | 0.0 | 0.0 | 0.00 | 0.00 | 0.00 | 47 | 1014.2 |
| 20260503235544 | 50 | 272 | 0.9 | 0.9 | 0.00 | 0.00 | 0.00 | 47 | 1014.2 |
| 20260503235041 | 50 | 272 | 0.0 | 0.0 | 0.00 | 0.00 | 0.00 | 46 | 1014.4 |
| 20260503234538 | 50 | 289 | 0.0 | 0.9 | 0.00 | 0.00 | 0.00 | 45 | 1014.4 |
| 20260503234037 | 51 | 244 | 0.0 | 0.9 | 0.00 | 0.00 | 0.00 | 45 | 1014.4 |
| 20260503233533 | 51 | 325 | 0.0 | 0.0 | 0.00 | 0.00 | 0.00 | 46 | 1014.2 |
| 20260503233029 | 51 | 339 | 0.0 | 0.0 | 0.00 | 0.00 | 0.00 | 44 | 1014.3 |
| 20260503232526 | 51 | 332 | 2.6 | 2.6 | 0.00 | 0.00 | 0.00 | 42 | 1014.3 |
| 20260503232024 | 51 | 260 | 2.6 | 3.5 | 0.00 | 0.00 | 0.00 | 42 | 1014.3 |
| 20260503231521 | 52 | 255 | 0.9 | 1.7 | 0.00 | 0.00 | 0.00 | 43 | 1014.3 |
| 20260503231018 | 52 | 268 | 2.6 | 2.6 | 0.00 | 0.00 | 0.00 | 42 | 1014.2 |
| 20260503230514 | 52 | 291 | 0.9 | 1.7 | 0.00 | 0.00 | 0.00 | 42 | 1014.2 |
| 20260503230012 | 52 | 324 | 0.9 | 1.7 | 0.00 | 0.00 | 0.00 | 45 | 1014.1 |
| 20260503225509 | 52 | 260 | 0.0 | 0.0 | 0.00 | 0.00 | 0.00 | 41 | 1014.2 |
| 20260503225003 | 53 | 313 | 0.0 | 0.9 | 0.00 | 0.00 | 0.00 | 41 | 1014.2 |
| 20260503224501 | 53 | 269 | 2.6 | 5.2 | 0.00 | 0.00 | 0.00 | 41 | 1014.2 |
| 20260503223959 | 53 | 228 | 0.9 | 0.9 | 0.00 | 0.00 | 0.00 | 40 | 1014.2 |
| 20260503223457 | 54 | 318 | 3.5 | 3.5 | 0.00 | 0.00 | 0.00 | 39 | 1014.4 |
| 20260503222952 | 54 | 294 | 0.9 | 0.9 | 0.00 | 0.00 | 0.00 | 42 | 1014.2 |
| 20260503222451 | 54 | 303 | 1.7 | 1.7 | 0.00 | 0.00 | 0.00 | 39 | 1014.3 |
| 20260503221949 | 54 | 250 | 0.0 | 0.9 | 0.00 | 0.00 | 0.00 | 40 | 1014.3 |
| 20260503221447 | 55 | 202 | 1.7 | 1.7 | 0.00 | 0.00 | 0.00 | 39 | 1014.4 |
| 20260503220943 | 55 | 271 | 0.9 | 0.9 | 0.00 | 0.00 | 0.00 | 38 | 1014.2 |
| 20260503220439 | 55 | 270 | 1.7 | 1.7 | 0.00 | 0.00 | 0.00 | 38 | 1014.2 |
| 20260503215937 | 56 | 326 | 0.9 | 1.7 | 0.00 | 0.00 | 0.00 | 37 | 1014.3 |
| 20260503215433 | 56 | 203 | 0.9 | 1.7 | 0.00 | 0.00 | 0.00 | 38 | 1014.1 |
| 20260503214931 | 55 | 273 | 2.6 | 3.5 | 0.00 | 0.00 | 0.00 | 39 | 1014.2 |
| 20260503214429 | 55 | 293 | 1.7 | 2.6 | 0.00 | 0.00 | 0.00 | 37 | 1014.2 |
| 20260503213926 | 56 | 272 | 2.6 | 5.2 | 0.00 | 0.00 | 0.00 | 37 | 1014.3 |
| 20260503213424 | 55 | 274 | 2.6 | 2.6 | 0.00 | 0.00 | 0.00 | 39 | 1014.1 |
| 20260503212920 | 56 | 254 | 1.7 | 3.5 | 0.00 | 0.00 | 0.00 | 36 | 1014.3 |
| 20260503212418 | 56 | 270 | 1.7 | 3.5 | 0.00 | 0.00 | 0.00 | 39 | 1014.1 |
| 20260503211915 | 55 | 189 | 2.6 | 3.5 | 0.00 | 0.00 | 0.00 | 38 | 1014.3 |
| 20260503211412 | 55 | 270 | 0.9 | 1.7 | 0.00 | 0.00 | 0.00 | 37 | 1014.3 |
| 20260503210907 | 54 | 187 | 0.0 | 0.9 | 0.00 | 0.00 | 0.00 | 41 | 1014.4 |
| 20260503210405 | 54 | 299 | 0.9 | 0.9 | 0.00 | 0.00 | 0.00 | 39 | 1014.4 |
| 20260503205904 | 55 | 245 | 1.7 | 2.6 | 0.00 | 0.00 | 0.00 | 37 | 1014.4 |
| 20260503205402 | 55 | 305 | 2.6 | 3.5 | 0.00 | 0.00 | 0.00 | 42 | 1014.4 |
| 20260503204858 | 55 | 292 | 1.7 | 2.6 | 0.00 | 0.00 | 0.00 | 39 | 1014.6 |
| 20260503204356 | 55 | 282 | 3.5 | 3.5 | 0.00 | 0.00 | 0.00 | 37 | 1014.8 |
| 20260503203853 | 55 | 319 | 1.7 | 2.6 | 0.00 | 0.00 | 0.00 | 41 | 1014.4 |
| 20260503203350 | 53 | 33 | 4.3 | 6.1 | 0.00 | 0.00 | 0.00 | 42 | 1014.6 |
| 20260503202847 | 54 | 349 | 1.7 | 3.5 | 0.00 | 0.00 | 0.00 | 43 | 1014.8 |
| 20260503202345 | 54 | 257 | 1.7 | 1.7 | 0.00 | 0.00 | 0.00 | 40 | 1014.8 |
| 20260503201843 | 54 | 301 | 1.7 | 3.5 | 0.00 | 0.00 | 0.00 | 38 | 1014.9 |
| 20260503201340 | 55 | 337 | 3.5 | 5.2 | 0.00 | 0.00 | 0.00 | 40 | 1014.8 |
| 20260503200837 | 55 | 8 | 3.5 | 3.5 | 0.00 | 0.00 | 0.00 | 40 | 1014.7 |
| 20260503200333 | 55 | 287 | 2.6 | 3.5 | 0.00 | 0.00 | 0.00 | 39 | 1014.9 |
| 20260503195830 | 54 | 281 | 3.5 | 3.5 | 0.00 | 0.00 | 0.00 | 37 | 1014.9 |
| 20260503195327 | 54 | 234 | 1.7 | 1.7 | 0.00 | 0.00 | 0.00 | 39 | 1015.0 |
| 20260503194824 | 54 | 7 | 3.5 | 5.2 | 0.00 | 0.00 | 0.00 | 39 | 1015.0 |
| 20260503194320 | 54 | 158 | 2.6 | 3.5 | 0.00 | 0.00 | 0.00 | 38 | 1015.2 |
| 20260503193816 | 53 | 268 | 1.7 | 2.6 | 0.00 | 0.00 | 0.00 | 43 | 1015.2 |
| 20260503193312 | 53 | 290 | 1.7 | 2.6 | 0.00 | 0.00 | 0.00 | 43 | 1015.1 |
| 20260503192809 | 53 | 310 | 1.7 | 2.6 | 0.00 | 0.00 | 0.00 | 39 | 1015.4 |
| 20260503192305 | 54 | 27 | 2.6 | 3.5 | 0.00 | 0.00 | 0.00 | 40 | 1015.4 |
| 20260503191800 | 54 | 253 | 3.5 | 3.5 | 0.00 | 0.00 | 0.00 | 38 | 1015.3 |
| 20260503191257 | 53 | 315 | 3.5 | 6.1 | 0.00 | 0.00 | 0.00 | 39 | 1015.3 |
| 20260503190754 | 53 | 330 | 7.0 | 7.8 | 0.00 | 0.00 | 0.00 | 42 | 1015.4 |
| 20260503190251 | 53 | 347 | 1.7 | 2.6 | 0.00 | 0.00 | 0.00 | 39 | 1015.5 |
| 20260503185748 | 54 | 230 | 2.6 | 2.6 | 0.00 | 0.00 | 0.00 | 39 | 1015.5 |
| 20260503185244 | 54 | 344 | 3.5 | 3.5 | 0.00 | 0.00 | 0.00 | 40 | 1015.6 |
| 20260503184738 | 54 | 268 | 1.7 | 2.6 | 0.00 | 0.00 | 0.00 | 41 | 1015.5 |
| 20260503184235 | 54 | 237 | 0.9 | 1.7 | 0.00 | 0.00 | 0.00 | 41 | 1015.8 |
| 20260503183731 | 54 | 344 | 2.6 | 3.5 | 0.00 | 0.00 | 0.00 | 44 | 1015.8 |
| 20260503183229 | 53 | 319 | 2.6 | 2.6 | 0.00 | 0.00 | 0.00 | 42 | 1015.6 |
| 20260503182727 | 53 | 296 | 4.3 | 5.2 | 0.00 | 0.00 | 0.00 | 41 | 1015.8 |
| 20260503182225 | 53 | 23 | 4.3 | 5.2 | 0.00 | 0.00 | 0.00 | 42 | 1015.7 |
| 20260503181722 | 53 | 213 | 4.3 | 7.0 | 0.00 | 0.00 | 0.00 | 40 | 1015.6 |
| 20260503181219 | 53 | 324 | 4.3 | 7.0 | 0.00 | 0.00 | 0.00 | 42 | 1016.0 |
| 20260503180715 | 53 | 321 | 2.6 | 6.1 | 0.00 | 0.00 | 0.00 | 43 | 1016.0 |
| 20260503180214 | 53 | 295 | 3.5 | 6.1 | 0.00 | 0.00 | 0.00 | 42 | 1016.1 |
| 20260503175710 | 52 | 356 | 5.2 | 7.8 | 0.00 | 0.00 | 0.00 | 41 | 1016.0 |
| 20260503175208 | 53 | 280 | 2.6 | 2.6 | 0.00 | 0.00 | 0.00 | 42 | 1016.1 |
| 20260503174704 | 52 | 295 | 3.5 | 3.5 | 0.00 | 0.00 | 0.00 | 47 | 1015.9 |
| 20260503174201 | 52 | 245 | 3.5 | 6.1 | 0.00 | 0.00 | 0.00 | 41 | 1016.1 |
| 20260503173656 | 52 | 319 | 0.9 | 1.7 | 0.00 | 0.00 | 0.00 | 41 | 1016.1 |
| 20260503173152 | 51 | 291 | 1.7 | 2.6 | 0.00 | 0.00 | 0.00 | 44 | 1016.4 |
| 20260503172649 | 51 | 292 | 3.5 | 5.2 | 0.00 | 0.00 | 0.00 | 42 | 1016.3 |
| 20260503172147 | 51 | 279 | 4.3 | 5.2 | 0.00 | 0.00 | 0.00 | 43 | 1016.3 |
| 20260503171643 | 51 | 266 | 2.6 | 2.6 | 0.00 | 0.00 | 0.00 | 42 | 1016.1 |
| 20260503171141 | 52 | 261 | 3.5 | 3.5 | 0.00 | 0.00 | 0.00 | 42 | 1016.4 |
| 20260503170638 | 53 | 282 | 2.6 | 3.5 | 0.00 | 0.00 | 0.00 | 43 | 1016.5 |
| 20260503170134 | 52 | 315 | 3.5 | 5.2 | 0.00 | 0.00 | 0.00 | 46 | 1016.5 |
| 20260503150526 | 47 | 196 | 3.5 | 3.5 | 0.00 | 0.00 | 0.00 | 46 | 1017.0 |
| 20260503131419 | 42 | 225 | 2.6 | 3.5 | 0.00 | 0.00 | 0.00 | 63 | 1016.9 |
| 20260503130916 | 42 | 228 | 0.9 | 1.7 | 0.00 | 0.00 | 0.00 | 63 | 1017.0 |
| 20260503130413 | 41 | 21 | 1.7 | 2.6 | 0.00 | 0.00 | 0.00 | 65 | 1017.0 |
| 20260503110817 | 31 | 233 | 0.0 | 0.0 | 0.00 | 0.00 | 0.00 | 94 | 1016.4 |
| 20260503110314 | 31 | 250 | 0.0 | 0.0 | 0.00 | 0.00 | 0.00 | 94 | 1016.3 |
| 20260503100240 | 30 | 250 | 0.0 | 0.0 | 0.00 | 0.00 | 0.00 | 92 | 1015.4 |
| 20260503090200 | 32 | 230 | 0.0 | 0.0 | 0.00 | 0.00 | 0.00 | 89 | 1015.3 |
| 20260503081630 | 32 | 243 | 0.0 | 0.9 | 0.00 | 0.00 | 0.00 | 88 | 1015.2 |
| 20260503081127 | 32 | 257 | 0.0 | 0.0 | 0.00 | 0.00 | 0.00 | 88 | 1015.0 |
| 20260503080623 | 32 | 269 | 0.0 | 0.0 | 0.00 | 0.00 | 0.00 | 88 | 1015.1 |
| 20260503080120 | 32 | 279 | 0.9 | 0.9 | 0.00 | 0.00 | 0.00 | 87 | 1015.0 |
| 20260503072557 | 33 | 292 | 0.0 | 0.0 | 0.00 | 0.00 | 0.00 | 82 | 1014.8 |
| 20260503072054 | 33 | 292 | 0.0 | 0.0 | 0.00 | 0.00 | 0.00 | 82 | 1014.7 |
| 20260503071550 | 33 | 292 | 0.0 | 0.0 | 0.00 | 0.00 | 0.00 | 81 | 1014.6 |
| 20260503071047 | 33 | 288 | 0.0 | 0.0 | 0.00 | 0.00 | 0.00 | 80 | 1014.6 |
| 20260503070543 | 33 | 333 | 1.7 | 1.7 | 0.00 | 0.00 | 0.00 | 80 | 1014.7 |